Torna al catalogo

STARLINK-37599

AttivoComunicazioniVLEO
NORAD 69360·PAYLOAD·🇺🇸 United States

Lanciato Jun 4, 2026 da Cape Canaveral Space Force Station

Loading…

Prossimi Passaggi (prossime 24 ore)

TLE

AggiornatoSource: CelesTrak SupGP

Epoca: Sep 15, 2026, 02:59 UTC

1 69360C 26123H   26258.12479167 -.00019088  00000+0 -56401-3 0  2582
2 69360  53.1578 166.7913 0001315  82.1058 349.0978 15.34397709    11

Traccia STARLINK-37599 in tempo reale con AllMySat

Download on the App Store